• In Latvia
  • List of Countries
  • For 7 days
  • Water Temperature
  • Satellite Maps
  • Weather Map
  • Weather Widgets
  • user-avatar
    Login

    Hourly Weather Dzhalalkuduk

    Today, 19 August, Sunday

    Time Temperature Precipitation Wind Pressure Humidity
    00:00 +27°C° 0.1 mm 3 mps 701 mmHg 38%
    01:00 +27°C° 0.1 mm 3 mps 701 mmHg 39%
    02:00 +26°C° 0.1 mm 3 mps 701 mmHg 39%
    03:00 +26°C° 0 mm 3 mps 701 mmHg 40%
    04:00 +25°C° 0 mm 3 mps 701 mmHg 40%
    05:00 +25°C° 0 mm 3 mps 701 mmHg 38%
    06:00 +27°C° 0 mm 2 mps 702 mmHg 35%
    07:00 +29°C° 0 mm 2 mps 702 mmHg 32%
    08:00 +31°C° 0 mm 2 mps 702 mmHg 29%
    09:00 +32°C° 0 mm 2 mps 702 mmHg 27%
    10:00 +35°C° 0 mm 2 mps 702 mmHg 24%
    11:00 +36°C° 0 mm 2 mps 702 mmHg 22%
    12:00 +37°C° 0 mm 2 mps 702 mmHg 21%
    13:00 +37°C° 0 mm 2 mps 701 mmHg 20%
    14:00 +38°C° 0 mm 3 mps 701 mmHg 19%
    15:00 +38°C° 0 mm 2 mps 701 mmHg 19%
    16:00 +38°C° 0 mm 2 mps 701 mmHg 19%
    17:00 +38°C° 0 mm 2 mps 701 mmHg 19%
    18:00 +35°C° 0 mm 2 mps 702 mmHg 21%
    19:00 +33°C° 0 mm 3 mps 702 mmHg 24%
    20:00 +30°C° 0 mm 3 mps 702 mmHg 27%
    21:00 +29°C° 0 mm 3 mps 702 mmHg 29%
    22:00 +28°C° 0 mm 3 mps 702 mmHg 30%
    23:00 +27°C° 0 mm 3 mps 702 mmHg 32%

    Tomorrow, 20 August, Monday

    Time Temperature Precipitation Wind Pressure Humidity
    00:00 +27°C° 0 mm 3 mps 702 mmHg 32%
    01:00 +26°C° 0 mm 3 mps 702 mmHg 33%
    02:00 +26°C° 0 mm 2 mps 702 mmHg 33%
    03:00 +26°C° 0 mm 2 mps 702 mmHg 34%
    04:00 +25°C° 0 mm 2 mps 702 mmHg 34%
    05:00 +25°C° 0 mm 2 mps 702 mmHg 35%
    06:00 +27°C° 0 mm 2 mps 702 mmHg 32%
    07:00 +29°C° 0 mm 1 mps 702 mmHg 30%
    08:00 +31°C° 0 mm 1 mps 703 mmHg 28%
    09:00 +32°C° 0 mm 1 mps 702 mmHg 25%
    10:00 +34°C° 0 mm 1 mps 702 mmHg 22%
    11:00 +37°C° 0 mm 2 mps 702 mmHg 19%
    12:00 +37°C° 0 mm 2 mps 702 mmHg 18%
    13:00 +38°C° 0 mm 2 mps 702 mmHg 17%
    14:00 +39°C° 0 mm 2 mps 702 mmHg 17%
    15:00 +39°C° 0 mm 2 mps 702 mmHg 16%
    16:00 +39°C° 0 mm 2 mps 702 mmHg 16%
    17:00 +39°C° 0 mm 2 mps 702 mmHg 16%
    18:00 +36°C° 0 mm 2 mps 702 mmHg 19%
    19:00 +34°C° 0 mm 3 mps 702 mmHg 22%
    20:00 +30°C° 0 mm 3 mps 703 mmHg 24%
    21:00 +30°C° 0 mm 3 mps 703 mmHg 25%
    22:00 +29°C° 0 mm 3 mps 703 mmHg 26%
    23:00 +29°C° 0 mm 3 mps 703 mmHg 26%

    Day after tomorrow, 21 August, Tuesday

    Time Temperature Precipitation Wind Pressure Humidity
    00:00 +28°C° 0 mm 3 mps 703 mmHg 28%
    01:00 +28°C° 0 mm 4 mps 702 mmHg 30%
    02:00 +27°C° 0 mm 4 mps 702 mmHg 31%
    03:00 +26°C° 0 mm 3 mps 703 mmHg 35%
    04:00 +26°C° 0 mm 3 mps 703 mmHg 39%
    05:00 +25°C° 0 mm 2 mps 703 mmHg 43%
    06:00 +26°C° 0 mm 2 mps 703 mmHg 42%
    07:00 +27°C° 0 mm 2 mps 704 mmHg 41%
    08:00 +29°C° 0 mm 2 mps 704 mmHg 40%
    09:00 +30°C° 0 mm 2 mps 704 mmHg 38%
    10:00 +31°C° 0 mm 2 mps 704 mmHg 36%
    11:00 +32°C° 0 mm 2 mps 704 mmHg 33%
    12:00 +34°C° 0 mm 2 mps 704 mmHg 31%
    13:00 +35°C° 0 mm 3 mps 703 mmHg 29%
    14:00 +36°C° 0 mm 3 mps 703 mmHg 27%
    15:00 +36°C° 0.1 mm 3 mps 703 mmHg 27%
    16:00 +36°C° 0.1 mm 3 mps 703 mmHg 27%
    17:00 +35°C° 0.1 mm 3 mps 703 mmHg 27%
    18:00 +33°C° 0.1 mm 3 mps 703 mmHg 31%
    19:00 +30°C° 0.1 mm 3 mps 703 mmHg 34%
    20:00 +28°C° 0.1 mm 3 mps 703 mmHg 38%
    21:00 +27°C° 0.1 mm 2 mps 703 mmHg 41%
    22:00 +26°C° 0.1 mm 2 mps 703 mmHg 43%
    23:00 +25°C° 0.1 mm 1 mps 703 mmHg 46%

    22 August, Wednesday

    Time Temperature Precipitation Wind Pressure Humidity
    00:00 +25°C° 0.1 mm 1 mps 703 mmHg 48%
    01:00 +24°C° 0.1 mm 1 mps 703 mmHg 49%
    02:00 +24°C° 0.1 mm 1 mps 703 mmHg 51%
    03:00 +23°C° 0 mm 1 mps 703 mmHg 52%
    04:00 +23°C° 0 mm 1 mps 703 mmHg 54%
    05:00 +23°C° 0 mm 1 mps 703 mmHg 55%
    06:00 +24°C° 0 mm 1 mps 703 mmHg 50%
    07:00 +26°C° 0 mm 1 mps 703 mmHg 46%
    08:00 +27°C° 0 mm 1 mps 703 mmHg 41%
    09:00 +29°C° 0 mm 1 mps 703 mmHg 38%
    10:00 +30°C° 0 mm 2 mps 703 mmHg 35%
    11:00 +31°C° 0 mm 2 mps 703 mmHg 32%
    12:00 +32°C° 0.1 mm 2 mps 702 mmHg 30%
    13:00 +34°C° 0.1 mm 2 mps 702 mmHg 28%
    14:00 +35°C° 0.1 mm 2 mps 702 mmHg 27%
    15:00 +35°C° 0 mm 2 mps 702 mmHg 26%
    16:00 +35°C° 0 mm 2 mps 702 mmHg 25%
    17:00 +35°C° 0 mm 2 mps 702 mmHg 25%
    18:00 +32°C° 0 mm 2 mps 702 mmHg 28%
    19:00 +30°C° 0 mm 3 mps 702 mmHg 31%
    20:00 +28°C° 0 mm 3 mps 702 mmHg 35%
    21:00 +27°C° 0 mm 3 mps 702 mmHg 36%
    22:00 +26°C° 0 mm 2 mps 702 mmHg 38%
    23:00 +25°C° 0 mm 2 mps 702 mmHg 40%

    23 August, Thursday

    Time Temperature Precipitation Wind Pressure Humidity
    00:00 +25°C° 0 mm 2 mps 702 mmHg 40%
    01:00 +24°C° 0 mm 2 mps 702 mmHg 41%
    02:00 +24°C° 0 mm 2 mps 702 mmHg 41%
    03:00 +23°C° 0 mm 2 mps 702 mmHg 42%
    04:00 +23°C° 0 mm 2 mps 702 mmHg 42%
    05:00 +23°C° 0 mm 2 mps 702 mmHg 43%
    06:00 +24°C° 0 mm 1 mps 702 mmHg 39%
    07:00 +26°C° 0 mm 1 mps 702 mmHg 35%
    08:00 +28°C° 0 mm 1 mps 703 mmHg 31%
    09:00 +29°C° 0 mm 1 mps 702 mmHg 29%
    10:00 +30°C° 0 mm 2 mps 702 mmHg 26%
    11:00 +32°C° 0 mm 2 mps 702 mmHg 24%
    12:00 +34°C° 0 mm 2 mps 702 mmHg 23%
    13:00 +34°C° 0 mm 3 mps 702 mmHg 22%
    14:00 +35°C° 0 mm 3 mps 701 mmHg 21%
    15:00 +35°C° 0 mm 3 mps 702 mmHg 21%
    16:00 +35°C° 0 mm 3 mps 702 mmHg 21%
    17:00 +35°C° 0 mm 3 mps 702 mmHg 21%
    18:00 +33°C° 0 mm 3 mps 702 mmHg 24%
    19:00 +29°C° 0 mm 3 mps 703 mmHg 27%
    20:00 +27°C° 0 mm 3 mps 703 mmHg 30%
    21:00 +27°C° 0 mm 3 mps 703 mmHg 31%
    22:00 +26°C° 0 mm 2 mps 703 mmHg 32%
    23:00 +26°C° 0 mm 2 mps 703 mmHg 33%

    24 August, Friday

    Time Temperature Precipitation Wind Pressure Humidity
    00:00 +26°C° 0 mm 2 mps 703 mmHg 34%
    01:00 +25°C° 0 mm 2 mps 703 mmHg 35%
    02:00 +25°C° 0 mm 2 mps 703 mmHg 36%
    03:00 +24°C° 0 mm 2 mps 703 mmHg 37%
    04:00 +24°C° 0 mm 2 mps 703 mmHg 38%
    05:00 +23°C° 0 mm 2 mps 703 mmHg 39%
    06:00 +25°C° 0 mm 2 mps 704 mmHg 36%
    07:00 +26°C° 0 mm 2 mps 704 mmHg 33%
    08:00 +28°C° 0 mm 1 mps 704 mmHg 31%
    09:00 +29°C° 0 mm 2 mps 704 mmHg 29%
    10:00 +30°C° 0 mm 2 mps 704 mmHg 27%
    11:00 +32°C° 0 mm 2 mps 704 mmHg 25%
    12:00 +32°C° 0.1 mm 2 mps 703 mmHg 23%
    13:00 +34°C° 0.1 mm 3 mps 703 mmHg 22%
    14:00 +35°C° 0.1 mm 3 mps 703 mmHg 21%
    15:00 +35°C° 0 mm 3 mps 703 mmHg 20%
    16:00 +34°C° 0 mm 3 mps 703 mmHg 20%
    17:00 +34°C° 0 mm 3 mps 703 mmHg 19%
    18:00 +31°C° 0 mm 3 mps 703 mmHg 22%
    19:00 +29°C° 0 mm 3 mps 703 mmHg 25%
    20:00 +26°C° 0 mm 3 mps 703 mmHg 28%
    21:00 +25°C° 0 mm 3 mps 703 mmHg 29%
    22:00 +25°C° 0 mm 3 mps 703 mmHg 30%
    23:00 +24°C° 0 mm 3 mps 702 mmHg 31%
    Show more